Zurück zum Katalog

ONEWEB-0623

AktivKommunikationPO
NORAD 55164·PAYLOAD·🇬🇧 United Kingdom

Gestartet Jan 10, 2023 von Cape Canaveral Space Force Station

Loading…

Nächste Überflüge (nächste 24 Stunden)

TLE

AktuellSource: CelesTrak SupGP

Epoche: Sep 14, 2026, 20:58 UTC

1 55164C 23004AA  26257.87375417 -.00001675  00000+0 -43200-2 0  2572
2 55164  87.9206 348.0662 0002235 122.7551 346.9137 13.17653247    12

Verfolge ONEWEB-0623 in Echtzeit mit AllMySat

Download on the App Store